Regional Weather Roundup
Issued by NWS

Home | Current Version | Previous Version | Text Only | Print | Product List | Glossary Off
Versions: 1 2 3 4 5 6 7 8 9 10 11 12 13 14 15 16 17 18 19 20 21 22 23 24 25 26 27 28 29 30 31 32 33 34 35 36 37 38 39 40 41 42 43 44 45 46 47 48 49 50

000
ASUS45 KBOU 272007
RWRCO

WEATHER ROUNDUP FOR COLORADO
NATIONAL WEATHER SERVICE DENVER/BOULDER CO
200 PM MDT WED MAY 27 2015

NOTE: "FAIR" INDICATES FEW OR NO CLOUDS BELOW 12000 FEET WITH NO
SIGNIFICANT WEATHER AND/OR OBSTRUCTIONS TO VISIBILITY.

COZ001>005-013-030-031-272100-
...NORTHWEST COLORADO...

CITY           SKY/WX    TMP DP  RH WIND       PRES   REMARKS
CRAIG          MOSUNNY   68  43  40 W13       30.12F
HAYDEN         MOSUNNY   63  39  42 NW13G20   30.14F
MEEKER         MOSUNNY   62  43  49 CALM      30.14F
MOUNT WERNER   NOT AVBL
STEAMBOAT SPGS MOSUNNY   61  42  49 W9        30.15F
WALDEN         MOSUNNY   59  32  36 W9G16     30.21F
$$

COZ006>008-011-272100-
...WEST CENTRAL VALLEYS...

CITY           SKY/WX    TMP DP  RH WIND       PRES   REMARKS
GRAND JUNCTION MOSUNNY   70  46  42 N3        30.06F
MONTROSE       MOSUNNY   72  39  30 W5        30.11F
EAGLE          NOT AVBL
RIFLE          MOSUNNY   70  42  36 W13       30.09F
DELTA          MOSUNNY   76  39  26 CALM      30.08F THUNDER
NUCLA          MOSUNNY   73  34  23 SW7G17    30.14F
$$

COZ017>023-064>068-272100-
...SOUTHWEST COLORADO...

CITY           SKY/WX    TMP DP  RH WIND       PRES   REMARKS
DURANGO        PTSUNNY   70  37  29 MISG      30.18F
CORTEZ         SUNNY     74  40  29 SW10G20   30.14S
PAGOSA SPRINGS PTSUNNY   67  26  21 S15       30.23F
TELLURIDE      PTSUNNY   56  29  34 S9        30.30S
WOLF CREEK PAS NOT AVBL
$$

COZ009-010-012-014-032>034-037-058>063-272100-
...CENTRAL COLORADO...

CITY           SKY/WX    TMP DP  RH WIND       PRES   REMARKS
ASPEN          PTSUNNY   57  38  48 NW7       30.21F
BUENA VISTA    CLOUDY    62  31  31 NW15      30.21S
COPPER MTN     CLOUDY    43  30  61 W13G21    30.42S
BERTHOUD PASS  CLOUDY    34  28  80 MISG      30.44S
COTTONWOOD PAS CLOUDY    54  30  40 NW5G17    30.31F
GUNNISON       PTSUNNY   57  34  41 S14       30.22F
KREMMLING      MOSUNNY   66  32  28 W15G23    30.17F
LEADVILLE      PTSUNNY   53  26  35 VRB7      30.29F
SALIDA         PTSUNNY   66  32  28 S8        30.25S
SUNLIGHT       TSTM      43  37  81 CALM      30.39S
WILKERSON PASS PTSUNNY   50  28  43 W7        30.41F
$$

COZ069>075-272100-
...SAN LUIS VALLEY/SANGRE DE CRISTO MOUNTAINS...

CITY           SKY/WX    TMP DP  RH WIND       PRES   REMARKS
ALAMOSA        PTSUNNY   68  26  20 SW20      30.18F
LA VETA PASS   PTSUNNY  N/A N/A N/A MISG      30.35F THUNDER
SAGUACHE       PTSUNNY   61  34  36 E6        30.22F
$$

COZ035-036-038>040-272100-
...NORTHERN COLORADO FRONT RANGE...

CITY           SKY/WX    TMP DP  RH WIND       PRES   REMARKS
DENVER INTL AP PTSUNNY   73  42  32 N5        30.05F
DMNS CITY PARK   N/A     74  38  27 NE9       30.04F
AURORA         PTSUNNY   74  40  29 NW5       30.06F
FRONT RANGE AP PTSUNNY   73  45  35 CALM      30.06F
ERIE MUNI ARPT PTSUNNY   74  42  31 E6        30.03F
BOULDER MUN AP MOSUNNY   72  41  33 E5        30.03F
CENTENNIAL     MOSUNNY   73  39  29 CALM      30.06F
BROOMFIELD     PTSUNNY   72  43  35 VRB3      30.07F
FORT COLLINS   MOSUNNY   73  48  40 S8        30.04F
LONGMONT       MOSUNNY   77  41  27 CALM      30.04F
$$

COZ041-046-047-076>085-087-088-272100-
...PIKES PEAK/PALMER DIVIDE AND SOUTHERN FOOTHILLS...

CITY           SKY/WX    TMP DP  RH WIND       PRES   REMARKS
COLO. SPRINGS  PTSUNNY   67  41  38 SE10      30.11S
A. F. ACADEMY  PTSUNNY   69  35  27 SW14G22   30.09F
ELLICOTT       NOT AVBL
FALCON         LGT RAIN  66  41  40 S16       30.14F
FORT CARSON    NOT AVBL
LIMON          MOSUNNY   69  46  43 S13       30.06F
MONUMENT HILL  MOSUNNY   64  37  36 N5        30.14F
TRINIDAD       PTSUNNY   68  46  45 SE15      30.12R
$$

COZ042>045-048>051-090-091-272100-
...NORTHEAST COLORADO...

CITY           SKY/WX    TMP DP  RH WIND       PRES   REMARKS
GREELEY ARPT   MOSUNNY   73  39  29 SE7       30.03F
AKRON          MOSUNNY   75  48  38 MISG      30.02F
BURLINGTON     MOSUNNY   79  52  38 SW15G28   30.04F
WRAY           MOSUNNY   78  55  44 SE15G23   30.00F
STERLING       MOSUNNY   75  52  43 SW6       29.99F
HOLYOKE        MOSUNNY   70  57  64 SE13      30.03F
FORT MORGAN    MOSUNNY   75  43  31 W5        30.03F
$$

COZ086-089-092>099-272100-
...SOUTHEAST COLORADO...

CITY           SKY/WX    TMP DP  RH WIND       PRES   REMARKS
PUEBLO         MOSUNNY   76  45  33 S8        30.02F
LA JUNTA       MOSUNNY   79  52  38 SE8       30.02F
LAMAR          MOSUNNY   81  52  36 SE6       29.99F
SPRINGFIELD      N/A     78  50  37 S15G22    30.04F
$$


USA.gov is the U.S. government's official web portal to all federal, state and local government web resources and services.